Preview of NWS' New Version of Forecast
This preview is not operational and should not be used for support decisions.

Regional Weather Roundup (RWR)

Issued by National Weather Service (NWS)

                            
000
ASUS46 KPQR 191310
RWROR 

OREGON REGIONAL WEATHER ROUNDUP
NATIONAL WEATHER SERVICE PORTLAND OR
600 AM PDT MON AUG 19 2019

NOTE: "FAIR" INDICATES FEW OR NO CLOUDS BELOW 12,000 FEET WITH
NO SIGNIFICANT WEATHER AND/OR OBSTRUCTIONS TO VISIBILITY.

ORZ001>013-191400-
NORTHWEST OREGON

  
CITY           SKY/WX    TMP DP  RH WIND       PRES   REMARKS
ASTORIA        LGT RAIN  57  56  96 SW3       29.98R FOG              
TILLAMOOK      CLEAR     46  45  93 CALM      30.00S                  
NEWPORT        CLEAR     52  50  93 CALM      30.01R                  
FLORENCE       CLOUDY    55  54  94 CALM      29.98S                  
PORTLAND       MOCLDY    61  53  75 CALM      29.98R                  
VANCOUVER WA   CLOUDY    60  53  77 CALM      29.98R                  
SCAPPOOSE      CLEAR     58  53  84 NW3       29.97R                  
HILLSBORO      CLOUDY    58  53  84 CALM      29.98R                  
AURORA         CLOUDY    59  53  80 CALM      29.99R                  
MCMINNVILLE    CLOUDY    58  54  86 CALM      29.98R                  
SALEM          CLOUDY    57  53  86 CALM      29.98R                  
CORVALLIS      CLOUDY    53  51  93 CALM      29.99R                  
EUGENE         MOCLDY    57  53  86 S7        29.99R                  
CRESWELL       CLOUDY    59  55  88 SW5       29.98R                  
$$

ORZ021-028-191400-
SOUTHWEST OREGON

  
CITY           SKY/WX    TMP DP  RH WIND       PRES   REMARKS
NORTH BEND     CLOUDY    60  57  89 N3        30.00R                  
BROOKINGS      FOG       52  52 100 SE3       29.97S VSB 3/4          
ROSEBURG       CLOUDY    60  52  74 CALM      29.98S                  
SEXTON SUMMIT  CLEAR     55  51  86 N6        30.01R                  
GRANTS PASS    FAIR      57  52  82 CALM      29.97R                  
MEDFORD        CLEAR     62  51  67 CALM      29.93R                  
$$

ORZ014>016-041-191400-
COLUMBIA GORGE

  
CITY           SKY/WX    TMP DP  RH WIND       PRES   REMARKS
TROUTDALE      CLOUDY    61  54  77 CALM      29.97R                  
HOOD RIVER     CLEAR     63  54  72 NW8       29.91R                  
THE DALLES     CLEAR     62  54  74 S3        29.86R                  
$$

ORZ029>031-041-044-049-050-061>064-502-503-505>511-191400-
EASTERN OREGON

  
CITY           SKY/WX    TMP DP  RH WIND       PRES   REMARKS
MADRAS         CLEAR     46  41  81 SE5       29.97R                  
REDMOND        CLEAR     49  40  71 SE3       29.97R                  
BEND           CLEAR     54  46  76 SW5       29.98R                  
PRINEVILLE     CLEAR     46  43  87 CALM      29.98R                  
KLAMATH FALLS  CLEAR     49  44  83 CALM      30.03R                  
LAKEVIEW       CLEAR     44  37  76 N7        30.09R                  
HERMISTON      CLEAR     68  46  45 SW9       29.83R                  
PENDLETON      CLEAR     58  44  60 SE5       29.88R                  
JOHN DAY       CLEAR     59  42  54 CALM      29.99R                  
MEACHAM        CLEAR     42  37  82 CALM      29.98R                  
LA GRANDE      CLEAR     51  43  74 SE3       29.93R                  
BAKER CITY     CLEAR     48  44  86 CALM      29.94R                  
BURNS          CLEAR     46  36  68 NE6       30.02R                  
ROME             N/A     64  28  25 W3        29.97R                  
ONTARIO        CLEAR     60  47  61 W5        29.86R                  
$$